Time,TemperatureF,DewpointF,PressureIn,WindDirection,WindDirectionDegrees,WindSpeedMPH,WindSpeedGustMPH,Humidity,HourlyPrecipIn,Conditions,Clouds,dailyrainin,SoftwareType,DateUTC
2013-01-24 06:23:00,-999.0,-99.9,-100.00,North,-999,-999.0,-999.0,-999,-99.99,,,-99.99,Acu-Link.com,2013-01-24 12:23:00,
2013-01-24 06:24:00,0.3,-9.0,30.10,NW,315,3.7,-999.0,64,-99.99,,,0.00,Acu-Link.com,2013-01-24 12:24:00,
2013-01-24 06:39:00,0.0,-9.2,30.10,East,90,3.7,-999.0,64,-99.99,,,0.00,Acu-Link.com,2013-01-24 12:39:00,
2013-01-24 06:54:00,-0.4,-9.3,30.11,North,0,2.7,-999.0,65,-99.99,,,0.00,Acu-Link.com,2013-01-24 12:54:00,
2013-01-24 07:09:00,-0.6,-9.5,30.11,NNE,22,3.2,-999.0,65,-99.99,,,0.00,Acu-Link.com,2013-01-24 13:09:00,
2013-01-24 07:25:00,-0.6,-9.5,30.11,NW,315,3.2,-999.0,65,-99.99,,,0.00,Acu-Link.com,2013-01-24 13:25:00,
2013-01-24 07:40:00,-0.4,-9.3,30.12,WNW,292,5.8,-999.0,65,-99.99,,,0.00,Acu-Link.com,2013-01-24 13:40:00,
2013-01-24 07:55:00,0.3,-9.0,30.12,North,0,3.7,-999.0,64,-99.99,,,0.00,Acu-Link.com,2013-01-24 13:55:00,
2013-01-24 08:11:00,0.7,-8.9,30.11,East,90,6.3,-999.0,63,-99.99,,,0.00,Acu-Link.com,2013-01-24 14:11:00,
2013-01-24 08:26:00,1.2,-8.4,30.12,NE,45,5.8,-999.0,63,-99.99,,,0.00,Acu-Link.com,2013-01-24 14:26:00,
2013-01-24 08:41:00,1.6,-8.4,30.12,NE,45,7.3,-999.0,62,-99.99,,,0.00,Acu-Link.com,2013-01-24 14:41:00,
2013-01-24 08:57:00,2.5,-7.5,30.12,ESE,112,3.7,-999.0,62,-99.99,,,0.00,Acu-Link.com,2013-01-24 14:57:00,
2013-01-24 09:12:00,2.1,-8.6,30.12,ENE,67,7.3,-999.0,60,-99.99,,,0.00,Acu-Link.com,2013-01-24 15:12:00,
2013-01-24 09:28:00,3.0,-8.0,30.12,WNW,292,5.8,-999.0,59,-99.99,,,0.00,Acu-Link.com,2013-01-24 15:28:00,
2013-01-24 09:43:00,3.4,-7.7,30.11,NE,45,5.3,-999.0,59,-99.99,,,0.00,Acu-Link.com,2013-01-24 15:43:00,
2013-01-24 09:58:00,4.1,-7.4,30.10,ENE,67,5.8,-999.0,58,-99.99,,,0.00,Acu-Link.com,2013-01-24 15:58:00,
2013-01-24 10:14:00,4.6,-6.5,30.08,West,270,4.7,-999.0,59,-99.99,,,0.00,Acu-Link.com,2013-01-24 16:14:00,
2013-01-24 10:29:00,5.7,-5.5,30.09,West,270,4.7,-999.0,59,-99.99,,,0.00,Acu-Link.com,2013-01-24 16:29:00,
2013-01-24 10:45:00,6.1,-5.5,30.09,ENE,67,4.7,-999.0,58,-99.99,,,0.00,Acu-Link.com,2013-01-24 16:45:00,
2013-01-24 11:00:00,6.8,-4.8,30.08,NNW,337,6.3,-999.0,58,-99.99,,,0.00,Acu-Link.com,2013-01-24 17:00:00,
2013-01-24 11:15:00,7.0,-4.6,30.07,NW,315,5.8,-999.0,58,-99.99,,,0.00,Acu-Link.com,2013-01-24 17:15:00,
2013-01-24 11:30:00,7.7,-4.0,30.06,WNW,292,6.8,-999.0,58,-99.99,,,0.00,Acu-Link.com,2013-01-24 17:30:00,
2013-01-24 11:46:00,8.2,-3.5,30.05,NW,315,3.2,-999.0,58,-99.99,,,0.00,Acu-Link.com,2013-01-24 17:46:00,
2013-01-24 12:01:00,8.6,-3.1,30.05,NNE,22,3.7,-999.0,58,-99.99,,,0.00,Acu-Link.com,2013-01-24 18:01:00,
2013-01-24 12:16:00,9.3,-2.4,30.04,NE,45,2.2,-999.0,58,-99.99,,,0.00,Acu-Link.com,2013-01-24 18:16:00,
2013-01-24 12:32:00,10.0,-1.8,30.02,ENE,67,4.2,-999.0,58,-99.99,,,0.00,Acu-Link.com,2013-01-24 18:32:00,
2013-01-24 12:47:00,10.8,-1.0,30.01,NNE,22,4.7,-999.0,58,-99.99,,,0.00,Acu-Link.com,2013-01-24 18:47:00,
2013-01-24 13:02:00,11.1,-0.8,30.01,NE,45,2.2,-999.0,58,-99.99,,,0.00,Acu-Link.com,2013-01-24 19:02:00,
2013-01-24 13:18:00,12.2,-0.1,30.01,West,270,3.2,-999.0,57,-99.99,,,0.00,Acu-Link.com,2013-01-24 19:18:00,
2013-01-24 13:33:00,11.3,-0.9,30.01,ESE,112,3.2,-999.0,57,-99.99,,,0.00,Acu-Link.com,2013-01-24 19:33:00,
2013-01-24 13:48:00,11.3,-0.9,30.00,West,270,3.2,-999.0,57,-99.99,,,0.00,Acu-Link.com,2013-01-24 19:48:00,
2013-01-24 14:04:00,10.9,-0.6,29.99,NE,45,3.2,-999.0,59,-99.99,,,0.00,Acu-Link.com,2013-01-24 20:04:00,
2013-01-24 14:20:00,11.3,-0.2,29.99,NNE,22,3.7,-999.0,59,-99.99,,,0.00,Acu-Link.com,2013-01-24 20:20:00,
2013-01-24 14:35:00,11.5,0.0,29.99,ESE,112,2.7,-999.0,59,-99.99,,,0.00,Acu-Link.com,2013-01-24 20:35:00,
2013-01-24 14:50:00,11.7,0.2,29.98,NNW,337,0.0,-999.0,59,-99.99,,,0.00,Acu-Link.com,2013-01-24 20:50:00,
2013-01-24 15:05:00,11.5,-0.4,29.97,WSW,247,3.2,-999.0,58,-99.99,,,0.00,Acu-Link.com,2013-01-24 21:05:00,
2013-01-24 15:21:00,11.1,-0.8,29.97,NNW,337,2.7,-999.0,58,-99.99,,,0.00,Acu-Link.com,2013-01-24 21:21:00,
2013-01-24 15:36:00,11.1,-0.8,29.97,North,0,3.7,-999.0,58,-99.99,,,0.00,Acu-Link.com,2013-01-24 21:36:00,
2013-01-24 15:51:00,10.9,-0.9,29.97,NE,45,1.7,-999.0,58,-99.99,,,0.00,Acu-Link.com,2013-01-24 21:51:00,
2013-01-24 16:07:00,10.6,-1.2,29.96,NNE,22,2.2,-999.0,58,-99.99,,,0.00,Acu-Link.com,2013-01-24 22:07:00,
2013-01-24 16:22:00,10.4,-1.4,29.95,NW,315,1.7,-999.0,58,-99.99,,,0.00,Acu-Link.com,2013-01-24 22:22:00,
2013-01-24 16:37:00,10.2,-1.2,29.95,NNE,22,1.7,-999.0,59,-99.99,,,0.00,Acu-Link.com,2013-01-24 22:37:00,
2013-01-24 16:53:00,10.0,-1.4,29.94,WNW,292,1.7,-999.0,59,-99.99,,,0.00,Acu-Link.com,2013-01-24 22:53:00,
2013-01-24 17:08:00,9.9,-1.2,29.93,WSW,247,1.7,-999.0,60,-99.99,,,0.00,Acu-Link.com,2013-01-24 23:08:00,
2013-01-24 17:23:00,9.9,-1.2,29.94,West,270,0.0,-999.0,60,-99.99,,,0.00,Acu-Link.com,2013-01-24 23:23:00,
2013-01-24 17:39:00,9.9,-0.8,29.93,NW,315,0.0,-999.0,61,-99.99,,,0.00,Acu-Link.com,2013-01-24 23:39:00,
2013-01-24 17:54:00,9.9,-0.5,29.92,West,270,1.7,-999.0,62,-99.99,,,0.00,Acu-Link.com,2013-01-24 23:54:00,
2013-01-24 18:09:00,10.0,-0.4,29.91,WNW,292,0.0,-999.0,62,-99.99,,,0.00,Acu-Link.com,2013-01-25 00:09:00,
2013-01-24 18:25:00,10.2,-0.2,29.90,WNW,292,0.0,-999.0,62,-99.99,,,0.00,Acu-Link.com,2013-01-25 00:25:00,
2013-01-24 18:40:00,10.2,-0.2,29.90,West,270,0.0,-999.0,62,-99.99,,,0.00,Acu-Link.com,2013-01-25 00:40:00,
2013-01-24 18:55:00,10.4,0.3,29.89,WNW,292,0.0,-999.0,63,-99.99,,,0.00,Acu-Link.com,2013-01-25 00:55:00,
2013-01-24 19:11:00,10.4,0.7,29.88,West,270,1.7,-999.0,64,-99.99,,,0.00,Acu-Link.com,2013-01-25 01:11:00,
2013-01-24 19:26:00,10.6,0.9,29.87,West,270,0.0,-999.0,64,-99.99,,,0.00,Acu-Link.com,2013-01-25 01:26:00,
2013-01-24 19:41:00,10.6,0.9,29.87,SW,225,0.0,-999.0,64,-99.99,,,0.00,Acu-Link.com,2013-01-25 01:41:00,
2013-01-24 19:56:00,10.6,0.9,29.87,West,270,0.0,-999.0,64,-99.99,,,0.00,Acu-Link.com,2013-01-25 01:56:00,
2013-01-24 20:12:00,10.8,1.1,29.87,North,0,1.1,-999.0,64,-99.99,,,0.00,Acu-Link.com,2013-01-25 02:12:00,
2013-01-24 20:27:00,10.9,1.1,29.87,West,270,0.0,-999.0,64,-99.99,,,0.00,Acu-Link.com,2013-01-25 02:27:00,
2013-01-24 20:43:00,10.9,1.1,29.86,West,270,1.1,-999.0,64,-99.99,,,0.00,Acu-Link.com,2013-01-25 02:43:00,
2013-01-24 20:58:00,10.9,1.1,29.86,West,270,1.7,-999.0,64,-99.99,,,0.00,Acu-Link.com,2013-01-25 02:58:00,
2013-01-24 21:14:00,10.9,1.1,29.84,SW,225,0.0,-999.0,64,-99.99,,,0.00,Acu-Link.com,2013-01-25 03:14:00,
2013-01-24 21:29:00,11.1,1.3,29.83,NW,315,2.2,-999.0,64,-99.99,,,0.00,Acu-Link.com,2013-01-25 03:29:00,
2013-01-24 21:44:00,11.1,1.7,29.82,WNW,292,0.0,-999.0,65,-99.99,,,0.00,Acu-Link.com,2013-01-25 03:44:00,
2013-01-24 22:00:00,11.3,1.9,29.83,WNW,292,0.0,-999.0,65,-99.99,,,0.00,Acu-Link.com,2013-01-25 04:00:00,
2013-01-24 22:15:00,11.5,2.1,29.82,West,270,0.0,-999.0,65,-99.99,,,0.00,Acu-Link.com,2013-01-25 04:15:00,
2013-01-24 22:30:00,11.7,2.6,29.82,WSW,247,0.0,-999.0,66,-99.99,,,0.00,Acu-Link.com,2013-01-25 04:30:00,
2013-01-24 22:46:00,11.7,3.8,29.83,West,270,1.7,-999.0,70,-99.99,,,0.00,Acu-Link.com,2013-01-25 04:46:00,
2013-01-24 23:01:00,11.7,5.3,29.83,ESE,112,0.0,-999.0,75,-99.99,,,0.00,Acu-Link.com,2013-01-25 05:01:00,
2013-01-24 23:16:00,11.7,5.9,29.82,West,270,0.0,-999.0,77,-99.99,,,0.00,Acu-Link.com,2013-01-25 05:16:00,
2013-01-24 23:32:00,11.5,6.0,29.80,ESE,112,2.7,-999.0,78,-99.99,,,0.00,Acu-Link.com,2013-01-25 05:32:00,
2013-01-24 23:47:00,11.5,6.3,29.80,South,180,2.7,-999.0,79,-99.99,,,0.00,Acu-Link.com,2013-01-25 05:47:00,